STARLINK-11088, 59709

Orbit data source: Space-Track

STARLINK-11088, 59709 is a payload satellite owned by SpaceX/Seattle (US) in LEO that was launched on Fri, 10 May 2024 UTC via an FALCON 9 launch vehicle from the Air Force Western Test Range (AFWTR). Payload-class satellites include a variety of spacecraft equipped with specific instruments for various scientific and technological missions. These include communications satellites like Starlink; space stations such as the ISS; scientific satellites like the Hubble; Earth observation satellites from companies like Planet Labs, Umbra, and HawkEye 360; GPS; miniature CubeSats for education and research; and military/defense satellites.

Loading next visibility...
Identifier
59709, 2024-088B
Orbit
LEO
Country
Flag of USUS
Related business
Manufacturer
SpaceX/Seattle
Mission
Operational Commercial Communications
Bus & Motor
STARLINK V2MD, Unknown motor
Mass
960 kg wet, ~910 kg dry
Launch date (UTC)
2024-05-10 (2 years ago)
Launch vehicle
FALCON 9
Launch site
Air Force Western Test Range (AFWTR)
Object type
Payload
Rocket body
Debris
Shape & HBR
Box + 2 Pan, 18.1 m
Radar Cross Section
36.964 m², Large (>1 m²)

Expand to show TLE details & history
Last TLE update: 23 hours ago

TLE from 23 hours ago
0 STARLINK-11088
1 59709U 24088B   25346.43454365  .00036488  00000-0  30525-3 0  9993
2 59709  53.1572  36.7193 0000887  96.5167 263.5952 15.69666793 92563
Epoch: 2025-12-12T10:25Z
TLE epoch observation values (Epoch: 2025-12-12T10:25:44.571Z)
Latitude
-0°
Longitude
158.90737°
Altitude
360.832 km
Speed
7.694 km/s
True Right ascension
02h 26m 52s
True Declination
0° 00' 00"
Sunlit
Object was in full shadow at epoch
Visualization orbit readout
Latitude
Unknown
Longitude
Unknown
Altitude
Unknown
Speed
Unknown
Apparent Right ascension
Unknown
Apparent Declination
Unknown
Sunlit
N/A
Visualization observer readout
Local Sidereal Time
07:32:43
Azimuth
Unknown
Elevation
Unknown
Doppler factor
Unknown
Orbital elements
Apogee altitude
360.709 km
Perigee altitude
359.514 km
Semi-major axis
6,738.249 km
Eccentricity
0.00009
Inclination
53.1572°
RAAN
36.7193°
Arg. of periapsis
96.5167°
True anomaly
263.5851°
Mean anomaly
263.5952°
Eccentric anomaly
263.59015°
Mean motion
3.92394 °/min
Orbital period
91.74 mins
BSTAR
0.00030525
Loading maneuver chart data...
Computing Atmospheric mass density...
Loading historical data...
Loading historical data...
Loading historical data...
Loading historical data...
Loading historical data...
Loading historical data...
Loading historical data...

Documentation

Showing up to 5 results
|